Tracking 19476 objects as of 17-Jan-2019
HD Live streaming from Space Station
objects crossing your sky now

COSMOS 972

Track COSMOS 972 now!
10-day predictions
COSMOS 972 is classified as:


NORAD ID: 10539
Int'l Code: 1977-123A
Perigee: 718.4 km
Apogee: 1,161.6 km
Inclination: 75.8 °
Period: 103.7 minutes
Semi major axis: 7310 km
RCS: 2.5463 m2 (large)
Launch date: December 27, 1977
Source: Commonwealth of Independent States (former USSR) (CIS)
Launch site: PLESETSK MISSILE AND SPACE COMPLEX (PKMTR)
aabbcc
Your satellite tracking list
Your tracking list is empty




NASA's NSSDC Master Catalog

Two Line Element Set (TLE):
1 10539U 77123A   19017.18134242 -.00000010  00000-0  24605-5 0  9995
2 10539  75.8329 245.1909 0303105 316.9638  40.8146 13.88793761 80321
Source of the keplerian elements: AFSPC